FM DX Radio

87.5 - 108 Mhz FM DX Radio received in Telford

  • Log File Aug-2015

  • Date/Time PI Code Freq RDS Name Country Transmitter Dist Power KW Notes Prop
    26-Aug-2015 17:44844E90MEGAHITSPORCoimbra 5 Es
    26-Aug-2015 17:25E21E94.8M80RADIOEValencina de la Concepción 40 Es
    26-Aug-2015 17:20820388.7COMRCIALPORLamego 5 Es
    26-Aug-2015 16:43 99.2SidiALGTessala   Es
    26-Aug-2015 15:40E23589.6CUARENTAEAlbacete-Norte 5 Es
    26-Aug-2015 15:28E2ED87.7EUROPAFMEPriego de Cordoba 1.2 Es
    18-Aug-2015 22:31D3C387.7__MDR___ _FIGARO_DChemnitz/Geyer675.1100 MS
    18-Aug-2015 22:31D3C387.9__MDR___ _FIGARO_DInselsberg569.860 MS
    16-Aug-2015 15:23321187.7JEDYNKA_POLKonin/ówieniec875.730 MS
    15-Aug-2015 21:41321187.7JEDYNKA_POLKonin/ówieniec875.730 Es
    15-Aug-2015 21:37E20187.6SR_P1___SStoruman/Norrberg TM109660 Es
    15-Aug-2015 20:25373B87.6 _R_D_C__POLOstrów Mazowiecka/Podborze1020.31 Es
    15-Aug-2015 19:20E2CA97.4__COPE__EChinchilla de Monte Aragón951.40.1 Es
    15-Aug-2015 19:18E23487.6CATINFO_ESoriguera/Pic de l'Orri730.61 Es
    15-Aug-2015 18:5651CC89.9R.MARIA_IParabita/Contrada Terrisi-Serra di San Eleuterio1308.35 Es
    15-Aug-2015 18:55521490.1_DEEJAY_IMartina Franca/Monte Trazzonara-Strada Carbonico Zona H1253.25 Es
    15-Aug-2015 18:55523388.5_M_DUE_OIBari/Via Principe Amedeo1208.92 Es
    15-Aug-2015 18:4651CC88.7R.MARIA_ICorato/Monte Ripanno1190.52 Es
    15-Aug-2015 18:43521490.3_DEEJAY_IRocca di Papa/Monte Cavo1036.55 Es
    15-Aug-2015 18:43521088.6RADIO___ RADICALEIRocca di Papa/Monte Cavo vetta1036.510 Es
    15-Aug-2015 18:42520187.6__RAI___ _RADIO1_IRocca di Papa/Monte Cavo vetta (RAI)1036.440 Es
    15-Aug-2015 18:39500689.6R.C.S.TBD    Es
    15-Aug-2015 18:38526387.7T_R_B_C_INapoli/Camaldoli-Eremo1132.7-1 Es
    15-Aug-2015 18:37521489.6_DEEJAY_IVico Equense/Monte Faito1153.4-1 Es
    15-Aug-2015 18:37500089.5RADIOSISIMelilli1368.7-1 Es
    15-Aug-2015 18:37522087.5R_ITALIAIErcolano-Vesuvio/Area Osservatorio1140.910 Es
    15-Aug-2015 18:30535E88.6R.DELTA1IRoccamorice-Maiella-Fonte Tettone1060.44 Es
    15-Aug-2015 15:00323288.5R.MARYJAPOLSupsk/Komin CM810.410 MS
    13-Aug-2015 17:00F20188.7NRK_P1TBD    MS
    13-Aug-2015 17:00F20187.6_NRK_P1_NORNordhue77643.3 MS
    13-Aug-2015 17:00F20187.8_NRK_P1_NORHovdefjell60224.9 MS
    13-Aug-2015 14:08D3C387.7__MDR___ _FIGARO_DChemnitz/Geyer675.1100 MS
    13-Aug-2015 14:08D3C387.9__MDR___ _FIGARO_DInselsberg569.860 MS
    12-Aug-2015 00:00 87.7ChlefALGAïn N'sour1168.3  Es
    11-Aug-2015 17:47E30187.7EUSKADI1EAzkoitia658.60.2 Es
    11-Aug-2015 17:46E30290.1EUSKADI2EKampezu/Yoar694.21 Es
    11-Aug-2015 17:46E21289.8RNE-CLASEHerencia Navajo924.840 Es
    11-Aug-2015 17:46E21290RNE-CLASEJaizkibel645.8100 Es
    11-Aug-2015 17:46E23790.3__DIAL__ESantander639.66 Es
    11-Aug-2015 17:44E2ED87.7EUROPAFMEPriego de Cordoba1054.81.2 Es
    11-Aug-2015 17:44E2EE88.1ONDACEROEChinchilla de Monte Aragón951.46 Es
    11-Aug-2015 17:44E21187.6RNE_1___EBenidorm/Serra Gelada982.55 Es
    11-Aug-2015 17:41E2EC106.7KISS_FM_EZaldiaran683.28 Es
    11-Aug-2015 17:41E333106.2_R.A.I._ELa Puerta de Segura/Yelmo996.410 Es
    11-Aug-2015 17:40EC3999.8SERTBD    Es
    11-Aug-2015 17:40E53999.9SERTBD    Es
    11-Aug-2015 17:40E21399.5RNE_3___ESolsona762.81 Es
    11-Aug-2015 17:40E23988.2__SER___EZaldiaran683.28 Es
    11-Aug-2015 17:40E21199.7RNE_1___EPuebla de Almenara891.20.5 Es
    11-Aug-2015 17:38A00087.6__ONDA__ _VASCA__EBermeo640.4-1 Es
    11-Aug-2015 17:37E5ED87.7EUROPAFMEValverde de Alcalá847.74 Es
    11-Aug-2015 17:37E1CC87.8R.MARIA_EMadridejos914.21 Es
    11-Aug-2015 17:30E21390Radio_3_EPuebla de Almenara891.20.5 Es
    10-Aug-2015 19:03E23988.2__SER___EAlmería1092.91 Es
    10-Aug-2015 18:02 92.5TiaretALGTiaret - Gzoul1207.8  Es
    10-Aug-2015 17:50E23793.2__DIAL__EAmposta842.41.2 Es
    10-Aug-2015 17:40 94.1Algerie IntALGMecheria1322.9  Es
    10-Aug-2015 17:36 88.2Chaine_2TBD   UnlistedEs
    10-Aug-2015 17:07 94Chaine 1ALGAïn N'sour1168.3  Es
    09-Aug-2015 19:4500A887.6_LAIKOS_ __8_7_6 CHALKI-_ DIKI____ 973_____ _9_7_3__GRCThessaloniki/Hortiatis1464.45 Es
    09-Aug-2015 19:27534087.7FUNRADIOSVKKošice/Dubník1076.3100 Es
    09-Aug-2015 10:25321190.7JEDYNKA_POLSolina/G.Jawor II1107.430 Es
    09-Aug-2015 10:04E059104.8PRO_FM__ 104,8_FMROUCâmpulung Moldovenesc/Raru1291.230 Es
    09-Aug-2015 10:03EE0390.8IS_90.8_ROUCâmpulung Moldovenesc/Raru1291.230 Es
    09-Aug-2015 10:01520192.2_SRO_1__SVKPoprad/Kráová hoa102230 Es
    09-Aug-2015 09:50B41889.5MUSIC_FMHNGBudapest - Széchenyi-hegy101677.6 Es
    09-Aug-2015 09:34822092.2___BNR__ HR.BOTEV 92.2 MHZ BOTEV VRAH TEL.0700 18508BULRRTS Botev vrah1440117.5 Es
    08-Aug-2015 15:52522087.5R_ITALIAIErcolano-Vesuvio/Area Osservatorio1140.910 Es
    08-Aug-2015 15:50500089.5RADIOSISIMelilli1368.7-1 Es
    08-Aug-2015 15:10521088.6RADIO___ RADICALEIRocca di Papa/Monte Cavo vetta1036.510 Es
    08-Aug-2015 11:06E2CA87.6__COPE__EBadajoz/Cansa Burros977.84 Es
    08-Aug-2015 10:58823189.6__RFM___PORFaro/São Miguel-Goldra1106.410 Es
    08-Aug-2015 10:53E21195.2RNE_1___EPunta Umbría1090.880 Es
    08-Aug-2015 10:52120395.3SNRT-AmzMRCCasablanca/Merchiche1351.116 Es
    08-Aug-2015 10:47E23993.1__SER___EAyamonte1093.81.2 Es
    08-Aug-2015 10:36120290SNRT-IntMRCCasablanca/Merchiche1351.139 Es
    08-Aug-2015 10:34128187.6MEDI_1__MRCCasablanca/Merchiche1351.116 Es
    01-Aug-2015 20:02E03887.7RADIO___ DISCO___ SOUND___ DE______ FRECUENC LATINA__ELorca/Sierra de Tercia1034.2-1 Es
    01-Aug-2015 19:41E2EE92.9ONDACEROEMurcia/Pico del Relojero10221 Es
    01-Aug-2015 19:38E32090.2BLUE_FM_ CHELLA__EChella946.82.5 Es
    01-Aug-2015 19:23696999.6_CADENA_ __LUNA__ __JAEN__ _99.6FM_ELa Guardia/Peña de San Cristóbal1033.40.2 Es
    01-Aug-2015 19:23E2EE99.8ONDACEROEValdepeñas960.12 Es
    01-Aug-2015 19:22E739104.5SERTBD    Es
    01-Aug-2015 19:12E03E94.4M.SURTBD    Es
    01-Aug-2015 19:11E2DC94.8MegaStarEAlcorcón854.1-1 Es
    01-Aug-2015 19:11E2CF95.2_ROCK_FMECiudad Real949.7-1 Es
    01-Aug-2015 19:11E23796.2__DIAL__ECiudad Real/La Atalaya945.62 Es
    01-Aug-2015 19:10E58897.6 TBD    Es
    01-Aug-2015 19:09E20899.2R.SURCO_EManzanares963.41.2 Es
    01-Aug-2015 19:09E2ED99.5EUROPAFMEGranada/San Gabriel1070.78 Es
    01-Aug-2015 19:07E088101.4_EXITOS_ ALHENDIN LLAMANOS 57-64-46ECerro de las Eras10772 Es
    01-Aug-2015 19:06E1CC88.5R,_MARIAEToledo/Cerro de los Palos8900.5 Es
    01-Aug-2015 19:05E5ED87.7EUROPAFMEValverde de Alcalá847.74 Es
    01-Aug-2015 10:55E2ED87.7EUROPAFMEChinchilla de Monte Aragón951.40.1 Es
    01-Aug-2015 10:46E5ED87.7EUROPAFMEValverde de Alcalá847.74 Es
    01-Aug-2015 10:44E23589.5CUARENTAEBilbao=Bilbo/Artxanda650.424 Es
    01-Aug-2015 10:20E03887.7RADIO___ DISCO___ SOUND___ DE______ FRECUENC LATINA__ELorca/Sierra de Tercia1034.2-1 Es
    01-Aug-2015 10:04E2EE95ONDACEROEBenidorm/Serra Gelada982.51.2 Es
    01-Aug-2015 10:02834389.5_T_S_F__PORLisboa/Monsanto1015.35 Es
    01-Aug-2015 10:01804287.6___RDS__PORSeixal1021.41.5 Es
    01-Aug-2015 10:00 99.2SidiALGTessala1204.9  Es
    01-Aug-2015 09:59820397.6COMRCIALTBD    Es
    01-Aug-2015 09:59820397.4COMRCIALPORLisboa/Monsanto1015.344 Es
    01-Aug-2015 09:58820399.2COMRCIALPORBraga/Sameiro817.55 Es
    01-Aug-2015 09:57844694.8__NFM___PORBombarral980.41 Es
    01-Aug-2015 09:56820294.4ANTENA_2PORLisboa/Monsanto1015.336 Es
    01-Aug-2015 09:55E21191.8RNE_1___EChinchilla de Monte Aragón951.460 Es
    01-Aug-2015 09:54822190.2___RR___PORSerra de Montejunto98410 Es
    01-Aug-2015 09:52844E90MEGAHITSPORCoimbra907.75 Es
    01-Aug-2015 09:47823189.9__RFM___PORArrábida1027.712 Es
    01-Aug-2015 09:29E2CE89.1CAD-100_ BADAJOZ_EBadajoz/Cansa Burros977.83 Es
    01-Aug-2015 09:27E21292.4RNE-CLASEPechina/Sierra Alhamilla1083.670 Es
    01-Aug-2015 09:26E23994.4_SER____ECáceres/Sierra de Portanchito931.76 Es
    01-Aug-2015 09:24E21195.2RNE_1___EPunta Umbría1090.880 Es
    01-Aug-2015 09:22E2D299.9RadioLUZESantiponce1066.70.5 Es
    01-Aug-2015 09:18E01187.8RV____FM 87,8__FMEValencina de la Concepción1069.30 Es
    01-Aug-2015 09:17E2EE89.5ONDACEROECáceres/Sierra de Portanchito931.76 Es
    01-Aug-2015 09:17E2DA89.9MELODIA_ ___FM___EHuelva1088.84 Es
    01-Aug-2015 09:13E33294CANALSUR HUELVA__EAlmonaster la Real/Sierra de Aracena1042.410 Es
    01-Aug-2015 09:12E21E97.8M80RADIOTBD    Es
    01-Aug-2015 09:11E2E897.4AdvertesingEMurcia1014.9  Es
    01-Aug-2015 09:09E2EE99.7ONDACEROEZamora7882 Es
    01-Aug-2015 09:08E238101.5RADIOLE_EValencina de la Concepción1069.340 Es
    01-Aug-2015 09:07E237102.4__DIAL__ESevilla1069.840 Es
    01-Aug-2015 09:01E000106.8SEJERE.8TBD    Es
    01-Aug-2015 09:01E20087.7HIT_FM__EJerez de la Frontera/San Cristóbal11226 Es
    01-Aug-2015 08:59E0CA91.8CAD-100_ VEGAS___ ALTAS___EVillanueva de la Serena960.3-1 Es
    01-Aug-2015 08:59E2CE92.4CAD-100_EJerez de la Frontera1120.14.2 Es
    01-Aug-2015 08:58E23893.8RADIOLE_EAlhaurin el Grande/Sierra de Mijas1114.75 Es
    01-Aug-2015 08:58E33394.3_R.A.I._ SEVILLA_EValencina de la Concepción1069.364 Es
    01-Aug-2015 08:57E43594.9CUARENTAELinares/La Esperanza1007.42 Es
    01-Aug-2015 08:56E0D198.7T.R.E.__ __Talk__ _Radio__ _Europe_ESotogrande759.7-1 Es
    01-Aug-2015 08:55E2CA99.6COPE____ESevilla1069.85 Es
    01-Aug-2015 08:55E30A99.7Canal_EXEGuadalcanal/Hamapega1022.516.7 Es
    01-Aug-2015 08:54 101.5Algerie_InternationaleALGChrea1151.8  Es
    01-Aug-2015 08:52E2CA87.6__COPE__EBadajoz/Cansa Burros977.84 Es
    01-Aug-2015 08:51E2EE90.9ONDACEROELa Guardia/Peña de San Cristóbal1033.44 Es
    01-Aug-2015 08:47E2ED101.6EUROPAFMEAlhaurin el Grande/Sierra de Mijas1114.75 Es
    01-Aug-2015 08:45E2DA88.7MELODIA_EBarcelona/Collserola807.710 Es
    01-Aug-2015 08:44E25187.7_RAC1___EBarcelona/Collserola807.720 Es
    01-Aug-2015 08:40E39687.6RADIO___ CASTILLA LAMANCHA RCM_____EAlmadén/Cerro de la Virgen del Castillo967.22.6 Es
    01-Aug-2015 08:39 88.7SoummamALGAkfadou1160.8  Es